Location: Pinnacle
(40.8833°S, 175.4667°E)
Time: 14:25:46
(UTC+00:00)

Daily predictions for brighter satellites

Satellite Brightness Start Highest point End
(mag) Time Altitude Azimuth Time Altitude Azimuth Time Altitude Azimuth
USA 59 Rocket 3.3 15:56:05 15° NNE 15:56:05 15° NNE 15:57:00 10° NNE
Atlas Centaur 2 4.3 16:15:08 19° NE 16:15:08 19° NE 16:16:54 10° ENE
USA 215 4.3 16:13:47 10° E 16:19:19 35° SSE 16:19:19 35° SSE
CZ-3 R/B 4.4 16:02:26 10° NW 16:20:51 27° N 16:28:11 10° ENE
Cosmos 1464 Rocket 4.3 16:47:40 59° NNE 16:47:40 59° NNE 16:52:43 10° N
SME Rocket 4.2 16:39:29 10° NNE 16:48:05 85° ESE 16:48:22 82° SSE
Cosmos 1992 Rocket 4.2 17:11:26 63° SSE 17:12:04 70° ESE 17:17:18 10° NNE
Cosmos 1697 Rocket 3.7 17:12:12 24° S 17:15:11 44° ESE 17:20:35 10° NE
PSLV R/B 4.0 17:11:03 10° NNE 17:15:05 58° E 17:15:05 58° E
Cosmos 1816 Rocket 4.3 17:11:31 10° NNW 17:18:03 65° SW 17:23:48 10° S
SL-4 R/B 4.1 17:23:35 19° SSE 17:23:35 19° SSE 17:25:16 10° SE
Cosmos 1340 Rocket 3.5 17:29:54 10° N 17:33:43 53° E 17:37:39 10° SSE
Cosmos 1980 Rocket 3.8 17:31:54 10° S 17:36:52 32° ESE 17:41:52 10° ENE
USA 59 Rocket 3.1 17:42:41 11° NW 17:42:41 11° NW 17:43:05 10° NW
Cosmos 1833 Rocket 2.6 17:39:15 27° NW 17:42:22 63° WSW 17:48:02 10° SSE
Cosmos 1340 2.9 17:43:57 44° SSE 17:44:43 58° ESE 17:48:06 10° NNE
Tiangong -0.1 17:46:01 21° N 17:46:01 21° N 17:47:45 10° NNE
Cosmos 1842 Rocket 3.5 17:41:59 10° NNW 17:46:25 61° W 17:50:56 10° S
Okean 3 Rocket 3.5 17:47:20 41° SSW 17:48:49 69° W 17:53:15 10° N
H-2A R/B (2) 4.2 17:47:44 10° NNW 17:50:49 19° NE 17:57:15 10° ENE
COSMO-SKYMED 1 4.4 17:48:00 10° SSE 17:52:00 33° E 17:55:58 10° NNE
Meteor 1-31 Rocket 4.0 17:50:20 10° NE 17:53:55 40° ESE 17:57:32 10° S
Cosmos 2034 Rocket 4.3 17:52:17 28° SW 17:54:53 42° W 18:00:37 10° NNW
Cosmos 1656 4.3 17:56:57 33° W 17:57:12 33° WNW 18:02:03 10° NNW
Spot 4 Rocket 4.2 17:52:30 10° N 17:57:28 47° W 17:59:36 30° SW
Meteor 1-10 Rocket 4.3 17:52:21 10° NNW 17:58:18 71° WSW 18:04:18 10° S
Atlas Centaur 2 3.5 17:57:21 17° NW 18:00:06 24° NNW 18:04:01 10° NE
USA 215 3.2 17:55:37 10° NE 18:02:11 86° NW 18:06:40 23° SW
Helios 1B rocket 3.5 17:58:43 10° NE 18:02:28 42° ESE 18:06:15 10° S
Cosmos 1023 Rocket 4.4 17:58:24 10° NNW 18:03:35 89° E 18:08:52 10° SSE
Cosmos 1408 Rocket 3.5 18:00:44 12° S 18:04:50 82° W 18:09:16 10° N
Meteor 2-9 Rocket 4.3 17:59:24 10° S 18:04:58 78° E 18:10:36 10° NNE
Cosmos 2279 Rocket 4.1 18:00:12 10° S 18:06:31 81° E 18:12:45 10° N
CORIOLIS 4.1 18:01:46 10° N 18:07:07 64° W 18:12:34 10° SSW
Cosmos 1151 Rocket 3.9 18:03:57 10° N 18:08:11 53° E 18:12:31 10° SSE
CZ-2C R/B 2.9 18:06:28 10° NNE 18:10:14 73° ESE 18:14:02 10° S
COSMOS 2406 4.1 18:07:19 10° N 18:12:49 52° ENE 18:18:23 10° SSE
YAOGAN 11 4.2 18:08:20 10° SSE 18:12:51 81° ENE 18:17:13 10° N
CZ-3 Stage 3 4.2 18:11:58 10° NNW 18:15:52 25° NE 18:25:48 10° E
Meteor 1-11 Rocket 3.6 18:10:23 10° SSW 18:15:57 67° W 18:21:26 10° N
Cosmos 1743 Rocket 3.6 18:16:24 10° S 18:20:48 82° E 18:25:10 10° N
Cosmos 1140 Rocket 3.4 18:16:04 10° NNW 18:21:12 68° WSW 18:26:27 10° SSE
NOSS 3-4 (C) 3.8 18:17:22 20° SW 18:21:47 47° WNW 18:27:27 10° N
NOSS 3-4 (A) 3.8 18:17:35 20° SW 18:21:55 46° WNW 18:27:31 10° N
Meteor 1-27 Rocket 3.7 18:22:13 10° NNW 18:27:57 63° WSW 18:33:39 10° S
SMAP 3.8 18:25:46 10° NNW 18:30:00 33° W 18:33:50 12° SW
Cosmos 407 Rocket 3.5 18:27:12 10° NNW 18:32:29 82° WSW 18:37:53 10° SSE
Cosmos 1733 3.2 18:29:42 12° SSW 18:32:51 46° W 18:36:15 10° NNW
CZ-4 R/B 4.4 18:30:10 10° NNE 18:34:17 89° ESE 18:38:29 10° SSW
Sich 1 3.1 18:32:47 10° SSW 18:37:03 56° W 18:41:18 10° N
Okean 1 4.2 18:33:57 10° NW 18:37:08 25° WSW 18:40:22 10° SSW
SKYMED 2 3.5 18:35:46 10° S 18:40:11 72° WSW 18:44:32 10° NNW
CZ-4B R/B 4.5 18:39:37 10° NE 18:44:15 45° ESE 18:48:50 10° S
NOAA 6 4.1 18:40:42 10° NNE 18:45:50 89° E 18:51:03 10° SSW
Cosmos 1626 1.8 18:42:47 10° N 18:46:00 83° E 18:49:17 10° S
ADEOS Rocket 2.8 18:43:06 10° N 18:48:43 72° WNW 18:54:17 10° SSW
Cosmos 1536 4.2 18:48:32 13° SW 18:50:22 18° W 18:53:02 10° NW
Cosmos 2082 Rocket 2.2 18:44:58 10° NW 18:50:33 62° WSW 18:56:13 10° SSE
SL-16 R/B 3.9 18:46:35 10° S 18:51:36 30° SE 18:56:34 10° ENE
Cosmos 1500 Rocket 4.3 18:48:02 10° SSW 18:52:01 32° W 18:55:56 10° NNW
BlueWalker 3 3.9 18:49:03 10° NNW 18:52:29 32° NE 18:55:57 10° ESE
Cosmos 1633 Rocket 3.9 18:48:12 10° S 18:52:34 53° E 18:56:53 10° NNE
Exosat Rocket 4.2 18:47:09 10° NNW 18:52:53 76° WSW 19:00:58 10° SSE
Cosmos 1697 Rocket 3.7 18:54:10 10° SW 18:58:51 27° WNW 19:03:30 10° NNW
YAOGAN 1 2.7 18:56:14 10° NNE 19:00:33 79° ESE 19:04:56 10° S
SL-4 R/B 3.8 18:58:36 10° SW 19:01:36 18° S 19:04:30 10° SE
Helios 1A 3.5 18:57:35 10° SSE 19:01:43 64° ENE 19:05:47 10° N
Cosmos 1763 Rocket 3.7 18:57:05 10° SSW 19:02:20 79° ESE 19:07:36 10° NNE
Resurs 01 Rocket 4.3 19:01:04 10° ENE 19:03:54 17° ESE 19:06:46 10° SSE
Cosmos 2251 Rocket 3.7 18:58:52 10° NW 19:04:00 49° WSW 19:09:10 10° S
Cosmos 2369 3.7 18:58:51 10° SSW 19:04:31 71° WNW 19:10:09 10° NNE
Radarsat Rocket 4.4 19:01:27 10° N 19:08:39 66° WNW 19:15:05 10° SSW
Cosmos 676 Rocket 4.4 19:06:28 10° N 19:11:37 71° ENE 19:16:52 10° SSE
Cosmos 2333 Rocket 4.3 19:08:46 10° S 19:13:06 21° SE 19:17:23 10° E
Cosmos 1190 Rocket 4.0 19:08:01 10° NNW 19:13:11 67° WSW 19:18:25 10° SSE
ATLAS 2AS CENTAUR R/B 4.1 19:07:48 10° SSW 19:14:29 36° SE 19:21:19 10° ENE
Cosmos 1470 Rocket 4.3 19:11:48 10° S 19:16:18 60° E 19:20:45 10° NNE
